Simultaneous Nadir Overpasses (SNOs) Predictions

Prediction of SNOs between GOES-15 and METOP-A Satellite Orbit:

Table of predicted SNOs for the next 14.0 days since TLE Epoch: 8/4/2017
Index Date Time (GOES-15) GOES-15 Lat,Lon METOP-A Lat,Lon Distance(km) Time Diff (sec)
1 08/05/2017 06:28:58 -0.00,-134.69 -0.20,-135.49 92.33 80
2 08/06/2017 06:10:58 -0.03,-134.71 0.89,-130.49 480.17 80
3 08/07/2017 18:27:10 -0.01,-134.86 0.02,-135.08 24.80 80
4 08/10/2017 06:28:10 0.04,-134.81 0.09,-134.69 15.39 80
5 08/11/2017 18:44:21 -0.08,-134.94 0.88,-139.26 491.28 80
6 08/12/2017 18:26:21 -0.05,-134.96 -0.21,-134.26 80.64 80
7 08/14/2017 06:42:40 0.09,-134.89 -0.82,-138.85 451.89 80
8 08/15/2017 06:24:41 0.06,-134.90 0.33,-133.86 119.19 80
9 08/16/2017 18:40:52 -0.10,-135.02 0.65,-138.43 389.26 80
10 08/17/2017 18:22:51 -0.07,-135.03 -0.44,-133.43 181.69 80




NCC Satellite Simultaneous Nadir Overpasses (SNOs) Prediction Service
